Regional Weather Roundup
Issued by NWS Spokane, WA

Home | Current Version | Previous Version | Text Only | Print | Product List | Glossary On
Versions: 1 2 3 4 5 6 7 8 9 10 11 12 13 14 15 16 17 18 19 20 21 22 23 24 25 26 27 28 29 30 31 32 33 34 35 36 37 38 39 40 41 42 43 44 45 46 47 48 49 50
000
NZUS01 KOTX 301310
RWROTX
EASTERN WASHINGTON/NORTHERN IDAHO ROUNDUP
NATIONAL WEATHER SERVICE, SPOKANE WA
600 AM PDT WED JUL 30 2014

Note: "fair" indicated few or no clouds below 12,000 feet with no
significant weather and/or obstructions to visibility.

...NORTHEAST WASHINGTON AND NORTHERN IDAHO PANHANDLE...

CITY           SKY/WX    TMP DP  RH WIND       PRES   REMARKS
SPOKANE INTL   PTCLDY    68  38  33 S6        30.04R
SPOKANE DOWNTO CLEAR     65  50  58 NE5       30.04R
COEUR D ALENE  CLEAR     57  48  72 E7        30.06R
DEER PARK      PTCLDY    60  47  61 NE5       30.05R
SANDPOINT      CLEAR     54  50  87 CALM      30.07R

...SOUTHEAST WASHINGTON AND SOUTHERN IDAHO PANHANDLE...

CITY           SKY/WX    TMP DP  RH WIND       PRES   REMARKS
WALLA WALLA    PTCLDY    78  47  33 S5        30.02R
PULLMAN/MOSCOW PTCLDY    58  44  60 CALM      30.09R
LEWISTON       CLEAR     72  38  29 CALM      30.02R
LOWELL           N/A     59  55  87 N5        30.12R

...COLUMBIA BASIN...

CITY           SKY/WX    TMP DP  RH WIND       PRES   REMARKS
EPHRATA        CLEAR     78  41  26 NW7       29.96S
MOSES LAKE     CLEAR     63  48  58 N3        29.97R
TRI CITIES     PTCLDY    78  59  51 SW12      29.96R
HERMISTON      MOCLDY    75  54  47 N6        29.97R
PENDLETON      MOCLDY    75  45  34 SE7       30.02S

...EAST SLOPES CASCADES...

CITY           SKY/WX    TMP DP  RH WIND       PRES   REMARKS
THE DALLES     CLEAR     72  57  59 NW16G22   29.98R
YAKIMA         PTCLDY    73  46  38 W8        30.00R
ELLENSBURG     PTCLDY    70  47  43 NW13      30.03S
WENATCHEE      CLEAR     74  52  46 W5        30.00R
OMAK           CLEAR     69  43  38 N9        30.00R

...SOUTHERN BRITISH COLUMBIA...

CITY           SKY/WX    TMP DP  RH WIND       PRES   REMARKS
PENTICTON      CLEAR     64  46  52 N9        30.04R
CASTLEGAR      PTCLDY    59  52  77 VRB2      30.06
CRANBROOK      PTCLDY    63  43  48 W5        30.14R

...WESTERN MONTANA...

CITY           SKY/WX    TMP DP  RH WIND       PRES   REMARKS
MISSOULA       CLEAR     58  43  57 CALM      30.16S

...NEIGHBORING CITIES...

CITY           SKY/WX    TMP DP  RH WIND       PRES   REMARKS
SEATTLE        PTCLDY    58  54  86 CALM      30.14S
CALGARY        PTCLDY    59  45  58 NW5       30.12S



USA.gov is the U.S. government's official web portal to all federal, state and local government web resources and services.